TIME,DELAY(SENSOR),PRES,OXYGEN,RAWTEMP,T(OPTODE),TCPHASE,FLUOR,BETA(BETA700),BETA(BETA412),BETA(BETA440),CDOM,C(CSC),ED(ED412.40),ED(ED444.00),ED(ED489.70),ED(ED554.30),LU(LU411.80),LU(LU443.40),LU(LU489.60),LU(LU554.10),COMP,TILTX,TILTY,CHECK
1346384457,5806,874.9699707031250000,47.4420204162597660,663.8297729492188000,4.5018081665039060,53.9537887573242200,52,99,84,79,80,15304,2147758253,2147421028,2148007780,2147876333,2147643776,2147056804,2148258761,2147202322,1905,4,13,14911
1346388053,5808,956.2600097656250000,50.0506515502929700,669.9639282226562000,4.2993907928466800,53.6627006530761700,53,98,88,102,81,15306,2147758948,2147422089,2148006966,2147874368,2147643666,2147064502,2148261586,2147200320,522,5,13,3689
1346391653,5810,965.2000122070312000,51.0984802246093750,670.3972778320312000,4.2850699424743650,53.5261497497558600,53,98,86,80,81,15308,2147758518,2147420708,2148008192,2147875373,2147644790,2147058861,2148257865,2147197586,444,5,13,35687
1346395253,5811,990.4500122070312000,51.4932289123535160,674.3184814453125000,4.1554360389709470,53.5239791870117200,52,99,89,79,81,15306,2147761142,2147421485,2148011584,2147874358,2147641197,2147061339,2148261641,2147196864,3403,5,13,55974
1346398853,5806,983.7500000000000000,51.9387817382812500,675.8660888671875000,4.1042227745056150,53.4767913818359400,53,99,86,79,81,15307,2147759890,2147420672,2148009088,2147875355,2147642633,2147063616,2148258404,2147197714,3090,5,13,39095
1346402453,5806,985.7100219726562000,52.1502494812011700,676.9152221679688000,4.0694890022277830,53.4619789123535160,52,98,87,79,82,15307,2147763245,2147419830,2148012854,2147874880,2147644269,2147060077,2148258157,2147195657,3589,4,13,4341
1346406053,5808,990.4500122070312000,52.1507911682128900,678.0778808593750000,4.0309810638427730,53.4774894714355500,53,97,86,80,80,15307,2147761426,2147421650,2148010779,2147873536,2147642587,2147062162,2148260397,2147196406,106,4,13,13990
1346409653,5809,990.0999755859375000,52.2101211547851560,678.5668945312500000,4.0147838592529300,53.4758682250976560,53,99,87,79,81,15308,2147763922,2147419830,2148010770,2147874121,2147642688,2147062061,2148258038,2147195081,3493,4,13,17085
1346413253,5810,993.4299926757812000,52.1918411254882800,678.9509277343750000,4.0020599365234375,53.4888916015625000,52,98,88,79,82,15306,2147762816,2147420653,2148011501,2147873508,2147646710,2147058322,2148264630,2147201856,3253,4,13,50695
1346416853,5808,994.5599975585938000,52.1768913269043000,678.3090209960938000,4.0233249664306640,53.4781494140625000,54,98,89,79,81,15309,2147761316,2147421677,2148005568,2147873161,2147644260,2147059520,2148261997,2147199021,170,5,13,16236
1346420453,5809,1001.0800170898438000,52.2184104919433600,678.2614135742188000,4.0249018669128420,53.4761009216308600,53,98,85,78,82,15304,2147764333,2147422683,2148009938,2147876598,2147642468,2147059574,2148261851,2147200173,3465,4,13,60715
1346424053,5806,1004.7600097656250000,52.0553588867187500,678.2241821289062000,4.0261359214782715,53.4903984069824200,52,99,85,79,82,15305,2147763190,2147421321,2148012242,2147873993,2147642011,2147061275,2148261083,2147202194,564,4,13,46335
1346427653,5811,1000.3099975585938000,51.6834297180175800,678.2565917968750000,4.0250630378723145,53.5459098815918000,52,99,86,77,81,15305,2147763922,2147421714,2148009353,2147872932,2147647917,2147060946,2148256886,2147199798,620,5,13,10038
1346431253,5807,1001.1300048828125000,51.6486396789550800,677.7302856445312000,4.0424962043762210,53.5444908142089840,52,100,87,79,82,15308,2147759076,2147423286,2148006061,2147871396,2147642998,2147064685,2148261760,2147196041,120,5,13,45871
1346434853,5807,999.0300292968750000,51.3342208862304700,678.0230712890625000,4.0327968597412110,53.5887298583984400,53,98,91,80,81,15303,2147761453,2147418742,2148008694,2147873261,2147641974,2147061339,2148253604,2147199314,258,4,13,46299
1346438453,5809,1003.1799926757812000,51.3599014282226560,677.3792724609375000,4.0541229248046875,53.5807609558105500,52,97,88,78,82,15305,2147758509,2147420077,2148010048,2147875456,2147643081,2147064082,2148256155,2147195776,205,4,13,27221
1346442053,5807,999.3099975585938000,51.3276901245117200,677.3643798828125000,4.0546150207519530,53.5803794860839840,52,99,87,79,82,15305,2147761627,2147421933,2148009426,2147871305,2147643273,2147061467,2148258148,2147204059,3566,4,13,6380
1346445653,5808,995.0800170898438000,51.6172409057617200,677.9418945312500000,4.0354881286621090,53.5477104187011700,53,99,89,79,81,15306,2147760685,2147422592,2148008841,2147870701,2147643264,2147060598,2148266825,2147198491,667,4,13,10799
1346449253,5808,1002.0599975585938000,51.4572296142578100,679.3154296875000000,3.9899790287017822,53.5868301391601560,53,98,87,80,82,15307,2147763209,2147419602,2148010130,2147874523,2147643904,2147063689,2148259053,2147198546,3269,4,13,5860
1346452853,5811,1006.2299804687500000,51.4330215454101560,679.6983032226562000,3.9772889614105225,53.5979499816894500,53,97,86,79,82,15300,2147763702,2147418057,2148008822,2147872850,2147647140,2147057554,2148262162,2147194742,11,5,13,9359
1346456453,5808,1005.2500000000000000,51.1065483093261700,679.6362304687500000,3.9793469905853270,53.6382102966308600,52,102,84,79,81,15294,2147763556,2147420242,2148007625,2147874450,2147645129,2147059337,2148263661,2147198528,8,5,13,56503
1346460053,5807,1003.7000122070312000,51.7024993896484400,679.6033935546875000,3.9804360866546630,53.5586318969726560,53,103,87,80,81,15299,2147761490,2147424795,2148008347,2147875145,2147643638,2147058505,2148261339,2147199067,3428,5,13,47512
1346463653,5807,1009.4199829101562000,52.0688095092773440,678.8010864257812000,4.0070228576660160,53.5017509460449200,52,97,88,78,82,15301,2147761334,2147420233,2148009472,2147874285,2147642523,2147060187,2148261348,2147199552,3090,4,13,13608
1346467253,5807,1002.3200073242188000,51.5649490356445300,678.8079833984375000,4.0067920684814450,53.5668106079101560,51,96,89,78,81,15299,2147762203,2147420041,2148009517,2147870454,2147642541,2147061019,2148263168,2147201289,204,5,13,27998
1346470853,5809,1002.8699951171875000,51.5873298645019500,679.1676025390625000,3.9948770999908447,53.5728111267089840,53,99,89,80,81,15301,2147759616,2147421686,2148010486,2147870025,2147639689,2147060041,2148264850,2147198976,262,5,13,58879
1346474453,5811,1008.2899780273438000,51.5969505310058600,678.4982299804688000,4.0170588493347170,53.5629692077636700,52,99,88,79,82,15298,2147760594,2147422098,2148005723,2147873152,2147644178,2147059181,2148261906,2147197595,10,5,13,22206
1346478053,5809,1019.3099975585938000,51.3346099853515600,677.1998901367188000,4.0600619316101070,53.5798110961914060,52,96,88,80,82,15297,2147757814,2147420672,2148006857,2147873947,2147644873,2147056484,2148263524,2147197531,2742,4,13,24246
1346481653,5809,1011.9500122070312000,51.2167892456054700,677.0740966796875000,4.0642280578613280,53.5899314880371100,53,98,87,78,81,15299,2147760036,2147422829,2148008749,2147872694,2147641920,2147063853,2148260900,2147199158,3532,4,13,9988
1346485253,5806,1013.8699951171875000,50.9954414367675800,677.8978881835938000,4.0369429588317870,53.6306495666503900,52,98,90,79,81,15297,2147759643,2147421348,2148006317,2147871881,2147644004,2147061019,2148254372,2147198034,3571,4,13,35842
1346488853,5810,1010.3400268554688000,51.1057891845703100,677.8297729492188000,4.0392022132873535,53.6156196594238300,52,97,85,80,81,15287,2147759753,2147424448,2148005942,2147871936,2147645659,2147053705,2148266934,2147200896,83,5,13,38148
1346492453,5809,1002.9099731445312000,51.3256988525390600,678.5125732421875000,4.0165810585021970,53.6000213623046900,52,98,89,80,82,15298,2147761965,2147419017,2148007908,2147874605,2147642642,2147060790,2148265161,2147199798,3536,4,13,55339
1346496053,5807,1005.2800292968750000,51.7597694396972660,679.0250244140625000,3.9996030330657960,53.5433998107910160,53,98,88,79,81,15298,2147760640,2147421074,2148007442,2147874002,2147643593,2147058989,2148264914,2147196425,26,5,13,52484
1346499653,5809,997.6500244140625000,51.3204307556152340,679.9595947265625000,3.9686300754547120,53.6186904907226560,52,98,88,79,82,15298,2147758290,2147420617,2148008969,2147872886,2147641316,2147061348,2148264548,2147194368,756,4,13,11057
1346503253,5809,1003.5399780273438000,51.1534996032714840,680.4824218750000000,3.9512960910797120,53.6429100036621100,52,99,87,79,81,15297,2147762221,2147417554,2148007424,2147873152,2147640329,2147060882,2148265005,2147198116,21,5,13,38925
1346506853,5810,1008.9699707031250000,51.0897789001464840,680.1276245117188000,3.9630599021911620,53.6471900939941400,53,105,85,78,82,15296,2147761042,2147422619,2148007798,2147875611,2147642825,2147057417,2148264073,2147198802,100,5,13,60691
1346510453,5808,1002.7600097656250000,51.0119094848632800,680.5532836914062000,3.9489440917968750,53.6674995422363300,52,99,90,78,82,15295,2147759826,2147418258,2148007360,2147873865,2147645110,2147064320,2148263506,2147194715,3486,4,13,37080
1346514053,5809,1003.5100097656250000,51.1648902893066400,680.6459960937500000,3.9458730220794678,53.6438789367675800,52,99,88,77,82,15298,2147760795,2147424310,2148005485,2147872731,2147645092,2147061531,2148262921,2147196580,223,4,13,54099
1346517653,5811,1006.3800048828125000,51.3846893310546900,679.2512817382812000,3.9921050071716310,53.6005401611328100,52,98,90,80,82,15298,2147759625,2147418624,2148009380,2147871579,2147641874,2147060123,2148261019,2147193545,354,5,13,2105
1346521253,5808,1009.2700195312500000,51.7466201782226560,678.8292846679688000,4.0060877799987790,53.5403099060058600,52,98,85,78,82,15295,2147759497,2147417417,2148008173,2147873718,2147640265,2147060022,2148261092,2147200484,6,5,13,3631
1346524853,5809,1008.6799926757812000,51.4186401367187500,678.8253784179688000,4.0062179565429690,53.5869712829589840,52,99,85,80,81,15293,2147762605,2147420187,2148009252,2147878372,2147644068,2147061613,2148260086,2147199186,3180,4,13,54751
1346528453,5810,1008.0399780273438000,51.1332588195800800,680.4774780273438000,3.9514620304107666,53.6475791931152340,51,98,88,79,83,15292,2147761225,2147418422,2148009920,2147872502,2147640630,2147058057,2148259008,2147199588,244,5,13,3503
1346529055,5808,1011.3200073242188000,51.1271209716796900,680.4194946289062000,3.9533820152282715,53.6502990722656250,53,106,91,79,82,15298,2147761334,2147419218,2148012288,2147874212,2147641472,2147062244,2148258925,2147201472,8,5,13,21677
